Location: Essen
(51.4609°N, 7.0127°E)
Time: 18:53:00
(UTC+02:00)

ISS - Visible Passes

Search period start: 26 March 2017 00:00
Search period end: 05 April 2017 01:00
Orbit: 399 x 409 km, 51.6° (Epoch: 27 March)

Date Brightness Start Highest point End Pass type
(mag) Time Alt. Az. Time Alt. Az. Time Alt. Az.
27 Mar -1.2 21:50:58 10° SSW 21:51:10 11° SSW 21:51:10 11° SSW visible
28 Mar -2.0 20:59:30 10° S 21:01:25 15° SE 21:01:53 14° SE visible
28 Mar -1.1 22:34:10 10° WSW 22:34:35 13° SW 22:34:35 13° SW visible
29 Mar -3.3 21:42:00 10° SW 21:45:00 38° SSE 21:45:00 38° SSE visible
30 Mar -2.6 20:50:01 10° SSW 20:52:47 26° SSE 20:55:12 12° E visible
30 Mar -2.7 22:25:41 10° WSW 22:27:52 39° WSW 22:27:52 39° WSW visible
31 Mar -3.8 21:33:20 10° WSW 21:36:33 60° SSE 21:37:53 31° E visible
31 Mar -1.1 23:09:43 10° W 23:10:33 17° W 23:10:33 17° W visible
01 Apr -3.3 20:41:04 10° SW 20:44:11 43° SSE 20:47:19 10° E visible
01 Apr -3.9 22:17:15 10° W 22:20:25 82° WNW 22:20:25 82° WNW visible
02 Apr -3.9 21:24:48 10° WSW 21:28:04 82° S 21:30:11 20° E visible
02 Apr -1.8 23:01:17 10° W 23:02:50 25° W 23:02:50 25° W visible
03 Apr -3.9 22:08:48 10° W 22:12:05 85° N 22:12:30 65° E visible
04 Apr -3.8 21:16:19 10° W 21:19:35 86° N 21:22:07 16° E visible
04 Apr -2.3 22:52:48 10° W 22:54:46 33° W 22:54:46 33° W visible
